ALESUND / VIGRA current weather conditions

sailwx.info

Wind from 120 at 4 knots

Air temperature 5.0° C
Visibility: greater than 5.4 NM
Dewpoint -0.0° C

Last reported at 2015-May-04 03:20 UTC.
Time now 2015-May-04 06:00 UTC

Location: N 62°34' E 006°07'.
View on Google Maps.

See reports from other nearby stations

  
Tides and Currents Weather Stations Pressure Air Temp Water Temp Dewpoint Dewpoint Depression Visibility Wind Speed Wind Dir Waves Ship Positions
date/time (UTC)wind fromknots sea level pressurealtimeterstation pressurevisibilityair tempwater tempwave heightnotes
2015-May-04 03:20 120 4 5.4 5.0
2015-May-04 02:50 120 6 5.4 5.0
2015-May-04 02:20 130 8 5.4 5.0
2015-May-04 01:50 140 5 5.4 4.0
2015-May-04 01:20 100 5 5.4 5.0
2015-May-04 00:50 130 7 5.4 4.0
2015-May-04 00:20 120 3 5.4 5.0
2015-May-03 23:50 050 14 5.4 6.0
2015-May-03 23:20 060 13 5.4 6.0
2015-May-03 22:50 050 14 5.4 6.0
2015-May-03 22:20 050 13 5.4 6.0
2015-May-03 21:50 050 15 5.4 6.0
2015-May-03 21:20 050 16 5.4 6.0
2015-May-03 20:50 050 17 5.4 6.0
2015-May-03 20:20 050 18 6.0
2015-May-03 19:50 050 17 6.0
2015-May-03 19:20 050 18 6.0
2015-May-03 18:50 050 17 7.0
2015-May-03 18:20 050 16 7.0
2015-May-03 17:50 050 15 8.0
2015-May-03 17:20 050 17 8.0
2015-May-03 16:50 060 17 8.0
2015-May-03 16:20 050 18 9.0
2015-May-03 15:50 050 16 9.0
2015-May-03 15:20 050 16 5.4 9.0
2015-May-03 14:50 050 16 5.4 9.0
2015-May-03 14:20 050 16 5.4 9.0
2015-May-03 13:50 050 15 9.0
2015-May-03 13:20 060 13 9.0
2015-May-03 12:50 050 13 9.0
2015-May-03 12:20 050 13 9.0
2015-May-03 11:50 050 13 9.0
2015-May-03 11:20 050 12 9.0
2015-May-03 10:50 060 11 8.0
2015-May-03 10:20 050 12 8.0
2015-May-03 09:50 050 11 8.0
2015-May-03 09:20 050 10 7.0
2015-May-03 08:50 050 9 7.0
2015-May-03 08:20 040 7 6.0
2015-May-03 07:20 100 4 6.0
2015-May-03 06:20 060 4 5.0
2015-May-03 05:50 050 5 5.4 5.0
2015-May-03 04:50 140 7 5.4 3.0
2015-May-03 04:20 150 4 5.4 2.0
2015-May-03 03:50 160 5 5.4 2.0
2015-May-03 03:20 150 5 5.4 3.0
2015-May-03 02:50 150 5 5.4 2.0
2015-May-03 02:20 140 6 5.4 1.0
2015-May-03 01:50 160 4 5.4 1.0
2015-May-03 01:20 160 4 5.4-0.0
2015-May-03 00:50 160 4 5.4-0.0
2015-May-03 00:20 180 4 5.4-1.0
2015-May-02 23:50 170 4 5.4-0.0
2015-May-02 23:20 180 4 5.4-0.0
2015-May-02 22:50 5.4 1.0
2015-May-02 22:20 5.4-0.0
2015-May-02 21:50 310 1 5.4-0.0
2015-May-02 21:20 330 2 5.4 1.0
2015-May-02 20:50 340 2 5.4 1.0
2015-May-02 20:20 350 4 5.4 3.0
2015-May-02 19:50 020 6 5.4 3.0
2015-May-02 19:20 020 6 5.4 4.0
2015-May-02 18:50 010 5 5.4 5.0
2015-May-02 18:20 010 5 5.4 6.0
2015-May-02 17:50 020 6 5.4 5.0
2015-May-02 17:20 360 6 5.4 5.0
2015-May-02 16:50 350 9 5.4 5.0
2015-May-02 16:20 360 7 5.4 7.0
2015-May-02 15:20 350 7 5.4 6.0
2015-May-02 14:50 350 7 5.4 6.0
2015-May-02 14:20 350 9 5.4 6.0
2015-May-02 13:50 360 9 5.4 7.0
2015-May-02 12:50 350 5 5.4 7.0
2015-May-02 12:20 340 6 5.4 6.0
2015-May-02 11:50 010 7 5.4 7.0
2015-May-02 11:20 350 4 5.4 7.0
2015-May-02 10:50 010 6 5.4 6.0
2015-May-02 10:20 020 7 5.4 5.0
2015-May-02 09:50 030 3 5.4 5.0
2015-May-02 08:50 020 6 5.4 6.0
2015-May-02 07:50 5.4 4.0
2015-May-02 07:20 150 5 5.4 4.0
2015-May-02 06:50 140 5 5.4 4.0